Wind_Speed
5 4 7 8 7 8 9 8 7 6 6 7 5 4 6 5 6 6 5 7 5 6 8 12 10 8 10 10 8 11 13 13 14 14 12 12 12 11 11 10 10 9 9 13 19 23 25 26 25 24 24 23 22 23 23 22 20 19 19 18 18 18 18 18 16 15 14 15 16 16 15 16 15 14 14 13 13 14 14 13 13 13 13 13 12 12
5 8 9 8 7 7 8 7 8 8 7 7 5 4 6 5 6 6 5 7 6 6 8 12 10 8 11 11 7 10 13 14 14 15 14 14 13 10 11 12 11 9 9 12 14 18 23 26 26 25 24 24 23 22 22 21 20 18 18 18 17 17 17 16 16 16 16 15 16 16 16 16 15 14 13 12 12 12 14 14 14 14 13 12 12 11
6 9 8 7 7 6 7 8 9 9 8 7 5 4 5 4 5 5 5 6 5 5 7 11 10 9 11 10 5 9 13 14 15 17 17 16 15 12 12 13 12 12 11 12 12 14 20 24 27 26 24 24 23 22 21 20 19 18 17 17 16 16 17 17 16 16 15 14 15 15 15 15 15 14 14 15 14 14 14 15 15 15 14 12 12 11
6 6 8 7 7 8 7 7 9 8 6 6 4 4 5 5 3 3 5 5 5 7 7 9 9 6 8 5 3 6 9 13 16 16 17 17 18 17 16 15 15 16 14 13 12 12 16 21 24 24 24 24 23 22 21 19 19 18 16 16 15 15 15 15 15 15 14 13 14 14 14 15 16 14 13 15 17 16 17 16 16 15 14 13 12 10
5 4 9 9 8 10 8 7 10 8 6 7 7 6 6 8 6 4 4 5 4 8 6 5 2 4 6 4 5 6 4 13 16 14 13 13 14 15 14 13 13 15 14 14 13 12 13 16 20 22 22 22 22 22 21 20 19 17 16 15 13 13 13 13 12 12 12 11 11 12 13 14 15 13 11 13 16 17 17 18 18 16 14 13 12 11
7 5 10 12 10 10 10 7 8 9 6 8 8 9 10 11 6 2 3 5 3 7 4 7 4 6 5 4 8 5 4 11 14 13 14 10 10 12 12 11 11 10 11 12 13 12 12 15 18 20 20 19 20 21 21 20 19 18 17 15 13 13 12 11 9 8 8 8 8 9 10 13 14 14 13 13 16 18 18 19 19 15 12 12 13 14
6 6 10 13 11 10 11 8 7 9 6 6 6 9 13 12 5 3 4 2 2 6 5 7 7 5 3 3 9 6 8 12 11 12 14 12 11 11 11 11 11 11 10 11 11 11 12 15 17 18 19 20 18 19 20 19 19 18 16 14 13 12 11 9 6 6 6 6 7 8 8 10 12 13 14 14 15 18 20 21 19 16 14 14 16 17
7 9 10 12 11 10 9 8 8 9 7 6 5 9 11 10 6 5 5 4 4 4 5 4 7 2 2 6 6 7 12 12 11 11 12 12 12 11 11 11 11 12 11 11 11 11 12 14 15 16 19 21 21 20 20 20 19 18 16 14 12 11 10 7 5 5 5 6 8 8 8 10 11 12 14 14 14 16 18 18 16 13 10 9 13 16
9 11 12 12 11 9 9 9 9 9 7 7 5 7 9 7 6 7 6 6 4 1 5 5 5 3 3 5 1 8 12 12 12 13 13 12 13 12 12 11 11 10 10 10 10 10 11 14 17 19 21 23 23 22 21 20 18 16 14 14 12 10 9 6 5 6 5 5 6 7 8 10 11 11 12 11 11 11 12 13 12 10 7 5 7 11
8 11 11 12 10 9 9 9 10 11 8 6 6 7 6 5 5 6 6 5 1 1 6 8 6 4 3 5 2 6 8 11 11 11 12 13 13 12 11 11 11 9 8 8 9 10 13 18 21 22 22 22 22 21 20 18 15 14 12 12 10 9 8 8 7 7 7 6 7 9 10 10 11 11 11 10 10 10 10 11 11 10 9 8 7 8
6 8 9 9 8 9 10 10 11 13 9 5 6 7 5 1 2 3 3 3 2 2 8 10 8 7 2 5 4 3 4 11 12 9 10 11 12 11 10 10 10 9 8 8 9 10 14 19 23 23 21 20 21 20 19 17 14 13 10 8 7 6 7 8 9 10 9 9 10 11 11 11 12 11 11 12 12 13 12 12 11 10 9 9 9 8
6 7 8 6 7 9 9 9 10 11 9 6 5 5 4 3 1 1 1 1 4 5 7 7 7 8 5 5 3 5 5 10 18 15 15 14 13 12 9 9 10 9 9 9 9 10 12 15 18 20 18 17 19 18 18 17 14 13 10 9 9 7 6 6 7 7 6 6 7 7 8 8 9 9 9 10 11 12 12 12 11 10 9 9 9 8
6 6 6 7 8 10 9 8 7 8 8 7 5 5 4 2 1 3 2 2 5 6 7 5 6 5 6 4 3 9 6 8 14 17 20 18 16 13 9 9 9 9 10 10 9 9 9 9 11 17 17 16 19 19 18 19 18 16 14 14 15 14 12 12 10 8 7 5 4 2 1 2 3 4 5 7 9 11 12 13 12 12 12 11 10 10
5 6 6 8 7 9 11 8 6 6 6 8 7 5 5 4 3 4 3 2 3 5 6 4 7 4 4 1 6 10 4 7 6 9 17 18 15 13 10 10 10 10 10 10 10 8 8 9 10 16 18 15 19 23 20 20 21 18 16 15 15 14 13 13 12 11 10 9 8 7 5 4 3 4 5 7 9 10 12 13 13 13 12 11 10 10
7 7 7 8 5 7 12 9 8 7 6 7 6 6 5 5 5 4 4 3 4 4 4 1 4 2 2 2 7 7 2 10 8 7 10 11 11 11 10 11 10 9 9 9 10 9 9 12 13 17 20 17 18 24 22 19 20 19 16 14 14 13 12 11 11 10 10 9 7 6 5 4 3 4 5 6 7 9 10 11 11 10 10 10 10 11
7 7 6 7 6 8 10 9 8 8 6 5 4 5 5 6 6 2 4 6 5 3 1 2 1 0 1 2 5 5 8 11 11 10 10 10 10 11 9 9 9 8 9 8 10 10 11 15 16 17 19 18 19 22 21 19 19 18 16 14 13 12 11 10 11 11 10 9 7 7 5 5 4 4 5 6 8 9 10 11 10 10 10 10 11 12
6 6 5 5 8 9 9 9 9 8 6 4 4 5 5 5 7 4 3 2 4 5 2 0 2 1 1 2 5 7 10 10 11 10 9 8 11 10 8 8 9 8 9 8 9 10 11 14 16 17 18 19 20 21 19 17 16 16 16 14 13 12 11 10 10 10 9 8 7 7 6 6 5 5 6 7 9 10 10 10 11 12 12 12 13 14
5 4 6 6 9 9 8 9 10 9 8 5 6 6 4 4 3 4 3 1 3 4 2 0 4 4 3 1 2 7 10 10 10 10 9 8 8 8 7 8 9 9 9 9 9 10 11 14 16 16 18 20 20 19 17 16 14 13 13 12 13 12 10 10 11 11 9 7 6 7 6 6 6 5 7 8 10 10 10 11 12 13 13 13 14 15
3 1 7 5 8 7 5 7 8 7 4 5 6 5 5 4 2 1 3 2 2 4 0 1 4 4 3 3 6 10 10 10 11 10 10 9 7 7 8 10 10 10 9 9 9 8 9 12 15 17 18 19 19 18 17 16 15 13 12 13 13 11 8 9 11 11 10 8 7 7 6 6 6 6 7 9 9 10 10 11 12 13 13 13 14 15
2 2 4 3 4 4 3 5 7 5 2 0 3 4 3 4 4 3 4 3 4 4 2 3 3 3 2 4 9 14 12 12 12 10 9 8 7 7 7 9 9 9 8 7 8 7 7 12 15 17 19 19 20 19 17 17 16 15 14 14 13 10 8 10 11 10 9 8 7 7 6 6 7 7 7 8 9 9 10 11 12 13 13 14 14 14
1 2 3 4 3 2 3 3 5 6 4 2 3 4 4 3 2 2 2 2 4 4 3 4 3 4 3 3 8 12 11 10 11 10 9 8 9 7 7 7 8 8 7 7 7 7 7 12 16 17 19 20 20 19 18 19 18 16 15 13 12 11 10 10 10 9 9 8 7 7 8 8 9 9 10 10 10 10 10 10 11 12 13 13 13 13
2 3 3 3 2 1 4 2 3 3 4 4 5 5 5 4 4 3 1 2 3 4 4 5 3 5 4 1 4 8 8 7 9 9 9 9 10 9 7 7 7 7 7 6 6 6 7 11 15 16 17 19 19 20 20 20 18 16 14 13 12 12 11 10 10 10 9 9 9 9 10 11 11 11 12 12 13 13 11 11 11 12 13 13 13 13
3 3 3 3 2 4 6 4 3 5 4 3 4 4 5 5 4 5 3 3 2 3 3 4 3 4 4 1 5 8 9 8 8 9 9 9 9 9 7 7 7 7 6 6 6 6 8 11 14 15 16 17 19 21 20 18 17 15 14 12 12 12 11 10 12 12 9 9 11 12 12 13 13 13 13 13 14 13 12 12 12 13 13 14 14 14
3 3 2 2 3 3 6 7 2 3 3 2 2 3 5 4 4 5 4 3 3 3 3 3 1 3 3 1 6 10 10 10 9 9 10 9 7 8 8 7 6 6 5 5 5 5 8 11 12 14 16 17 18 20 19 17 16 15 13 12 12 12 13 13 13 12 9 10 13 14 14 15 15 14 14 14 14 14 13 13 12 12 13 14 16 15
4 2 3 2 1 3 3 5 5 3 2 1 2 3 4 6 6 3 1 3 3 3 5 5 2 2 1 3 9 12 12 12 10 10 10 10 8 8 8 7 6 5 5 6 6 6 7 8 9 13 16 17 18 18 18 17 16 14 13 14 15 15 15 14 13 12 11 13 16 15 15 16 16 16 16 16 15 15 14 13 12 13 13 15 16 16
5 3 4 4 4 3 3 3 2 3 2 2 2 2 3 6 7 4 2 3 4 2 3 5 4 2 3 7 12 13 13 12 11 11 10 10 10 9 7 7 6 6 6 7 7 7 7 7 9 14 17 17 17 17 18 17 16 16 16 16 15 15 15 15 13 12 14 17 17 16 17 17 17 17 17 17 16 15 14 13 13 14 15 15 15 15
3 3 4 6 7 6 5 3 2 1 2 2 5 5 2 4 6 5 3 3 5 3 3 1 7 9 8 11 14 13 13 13 12 12 11 10 10 9 7 7 7 7 7 8 8 7 7 8 10 14 15 15 16 17 17 17 17 18 17 16 15 15 16 15 13 12 15 18 17 17 18 17 17 17 17 17 17 16 15 15 15 16 16 15 15 15
4 2 4 6 6 6 5 3 5 3 3 1 4 7 6 2 7 7 3 4 6 6 2 2 11 14 9 11 15 15 15 14 12 12 12 10 9 8 8 9 10 9 8 8 8 8 9 9 9 11 13 13 14 15 17 18 18 17 16 16 17 17 16 16 15 13 15 17 18 18 18 17 16 17 17 17 17 16 16 16 16 16 15 14 14 15
6 2 3 4 6 5 7 7 5 3 3 1 3 6 7 2 7 7 4 7 8 6 5 10 15 15 12 11 13 14 15 15 14 13 12 11 10 9 9 11 11 9 9 10 9 9 9 9 7 9 11 12 14 15 16 17 16 16 17 18 19 19 17 17 17 17 16 17 18 18 17 17 17 18 18 18 17 17 17 17 17 16 15 14 14 14
4 1 2 3 7 7 10 10 8 6 4 3 4 5 6 2 6 6 3 4 6 7 11 15 14 11 11 11 11 10 11 12 12 12 12 12 12 11 10 11 11 9 9 10 9 8 8 8 8 10 11 12 11 12 14 15 17 19 20 20 20 19 18 17 17 17 17 18 18 18 17 17 17 17 17 18 18 19 19 19 19 19 19 18 17 16
3 2 2 2 5 4 7 11 10 7 4 3 4 5 7 7 7 7 6 6 5 6 12 15 10 5 5 9 11 9 9 11 12 12 12 12 12 13 11 10 11 10 9 9 9 8 8 8 9 11 12 11 8 9 15 19 21 21 20 20 19 19 19 18 18 17 18 19 19 18 18 17 17 17 17 18 19 20 21 21 21 22 22 22 21 20
4 3 2 4 5 2 4 8 8 6 6 5 5 7 7 5 4 3 2 4 7 11 14 14 8 4 6 10 11 10 10 11 12 12 12 10 10 12 11 9 10 10 10 9 8 9 9 7 8 10 11 10 10 15 22 24 23 21 20 19 19 19 19 19 18 18 18 19 19 19 18 17 17 18 19 19 19 20 21 21 22 23 23 24 24 23
3 4 2 3 5 2 4 6 7 6 6 3 4 4 5 3 2 3 2 3 10 14 12 8 8 8 11 13 12 11 11 11 11 10 9 10 10 10 10 10 10 9 9 9 9 8 8 8 9 10 9 11 18 23 26 26 23 21 20 19 19 19 19 19 18 18 18 18 18 19 19 18 18 19 20 19 19 20 21 22 23 22 23 24 25 26
3 6 3 3 5 0 2 5 7 4 0 3 3 4 4 3 3 5 5 4 6 9 7 6 9 12 14 15 14 13 11 9 8 7 7 9 10 10 10 10 10 9 8 9 8 7 9 9 10 10 12 18 24 27 27 26 24 21 20 20 20 19 19 18 18 18 18 18 17 17 18 18 19 19 19 19 19 21 22 23 23 22 22 24 26 28
4 6 3 3 4 2 0 5 4 1 4 4 4 6 3 3 6 7 9 8 4 10 14 13 13 13 12 12 12 12 10 8 8 7 6 8 10 12 13 10 10 11 10 8 7 8 9 10 11 14 18 22 26 27 27 26 24 22 21 20 20 19 18 17 17 18 18 18 18 17 18 19 20 20 19 19 20 22 22 23 24 23 24 25 26 27
6 5 3 3 3 2 2 3 2 3 4 4 5 6 2 5 5 5 9 9 5 8 16 14 11 11 12 12 10 11 12 11 9 7 5 6 9 12 14 11 9 10 10 9 10 10 11 13 16 19 21 24 27 27 26 24 24 23 22 21 20 19 18 17 18 17 17 18 19 18 18 19 20 20 20 20 21 22 22 23 23 24 24 26 28 29
6 5 3 3 1 2 4 2 1 2 5 5 2 3 3 2 2 1 3 3 5 3 11 14 13 12 13 12 11 12 13 12 9 6 5 6 9 10 12 12 12 12 12 14 16 14 13 16 20 23 25 27 28 27 26 25 25 25 23 21 20 18 18 18 17 17 16 17 18 18 18 19 20 20 20 21 22 22 21 21 22 22 24 27 30 31
5 4 4 4 1 2 4 3 2 1 2 3 2 4 6 2 4 4 4 1 3 1 8 15 17 15 14 13 13 14 13 11 7 2 2 6 10 11 11 13 14 16 16 17 17 14 14 18 22 25 27 28 27 26 27 27 27 27 24 21 19 18 18 18 17 16 16 17 17 18 19 20 20 21 21 22 23 22 21 21 21 22 24 27 30 31
8 4 3 5 3 2 4 4 2 2 3 4 4 5 5 3 2 5 4 1 2 2 6 13 17 17 16 15 13 14 12 9 6 4 3 6 9 11 11 11 13 16 17 16 16 16 18 22 24 26 28 28 26 26 27 27 27 27 24 20 19 20 19 17 16 16 16 16 17 19 20 21 21 21 22 22 23 22 22 21 21 22 25 28 30 31
8 5 3 4 4 3 3 2 2 2 3 3 3 5 6 4 2 6 3 4 6 7 7 11 15 16 17 17 14 11 8 7 8 7 5 6 9 11 11 12 13 14 15 15 16 20 24 25 25 26 26 26 26 27 27 27 27 25 22 20 21 21 19 17 17 17 18 17 18 19 20 22 22 22 22 23 23 23 22 22 22 23 26 27 29 31
5 3 3 3 4 3 3 2 0 2 3 3 4 6 6 1 3 4 5 5 9 11 9 10 12 10 12 14 11 6 3 5 9 9 7 9 10 11 12 15 16 16 17 18 20 23 24 24 24 24 23 25 28 28 27 27 25 23 20 20 21 20 18 18 19 20 20 19 20 21 21 23 24 23 23 23 24 24 23 22 22 24 26 27 28 31
2 2 2 2 3 2 2 3 1 2 3 3 3 4 2 2 2 4 4 4 11 12 10 11 11 8 6 7 7 6 8 10 11 10 9 10 10 10 11 14 16 17 18 20 23 25 24 23 23 22 22 25 28 28 27 27 24 21 20 20 20 18 18 20 21 22 22 22 22 22 23 23 24 24 24 23 24 24 23 23 23 24 25 27 28 30
3 3 1 1 2 2 2 2 2 2 2 2 1 1 0 2 4 4 4 7 9 11 10 10 10 8 6 6 8 11 13 12 11 10 10 9 9 10 11 13 15 15 17 20 22 25 26 24 22 22 23 26 28 28 27 26 24 21 21 20 19 19 20 21 22 24 25 24 24 24 24 24 24 25 25 25 25 26 25 25 26 26 26 27 29 30
2 3 2 2 1 2 2 2 2 2 3 2 2 2 1 2 3 6 8 8 7 9 9 7 7 7 8 10 12 13 13 12 11 11 10 9 9 10 11 13 15 16 19 21 22 25 27 25 23 24 25 27 28 27 24 24 24 23 22 21 20 21 23 23 24 25 25 25 25 25 25 25 25 25 25 25 26 27 26 26 27 28 27 28 29 30
0 2 4 3 1 2 2 1 0 2 4 3 2 2 3 5 5 6 9 9 6 6 6 7 8 8 10 12 13 12 12 11 11 11 10 8 8 9 11 13 16 19 21 22 23 26 27 27 26 26 26 27 28 26 23 23 24 23 22 22 22 22 23 24 25 26 25 25 26 26 27 27 26 26 26 27 28 28 27 27 28 28 28 29 30 30
1 2 4 4 3 3 4 3 2 3 5 6 6 5 6 7 6 6 9 8 6 6 6 7 9 10 11 13 13 11 10 11 11 11 9 8 7 9 12 14 17 21 23 22 23 25 27 27 28 27 26 26 27 26 24 24 26 25 24 23 23 23 24 25 26 26 26 26 26 27 29 30 29 29 29 29 30 31 31 31 31 31 31 31 30 29
2 2 4 4 3 2 3 2 2 5 6 7 7 7 8 8 6 6 8 7 7 8 9 8 10 11 11 12 13 12 11 11 12 11 9 7 7 7 10 14 17 21 23 23 23 25 26 26 26 26 25 25 26 27 27 26 27 26 26 25 25 25 25 26 27 28 27 28 29 29 32 33 32 32 33 33 33 34 33 33 34 34 33 32 31 30
2 2 4 3 3 3 2 2 4 8 7 6 6 6 7 8 8 7 7 8 9 10 10 10 11 10 9 10 13 14 12 11 12 12 10 8 7 7 10 14 18 21 22 22 23 24 24 24 23 24 24 24 26 27 26 26 26 26 26 27 27 28 28 28 29 29 29 30 31 31 32 33 34 34 34 34 34 34 33 33 34 34 33 31 31 32
1 2 3 4 5 5 4 5 6 8 8 7 7 7 6 7 9 9 8 9 11 11 11 10 10 10 10 11 11 13 13 11 10 11 11 8 7 8 12 17 19 20 21 21 22 22 22 22 23 23 23 23 24 26 25 23 23 24 26 28 28 29 29 29 29 29 30 30 30 30 31 32 33 33 34 34 34 33 32 32 32 32 31 30 30 31
1 2 4 6 5 4 4 4 5 6 5 3 5 8 8 8 10 10 9 9 10 11 11 11 10 10 12 13 12 12 12 11 10 11 10 8 9 12 16 19 20 19 19 21 20 19 20 21 22 23 22 20 22 25 25 23 22 22 23 26 27 28 29 30 29 29 29 29 30 30 30 30 31 32 33 33 32 32 31 30 30 30 30 29 28 28
1 2 4 5 4 3 4 4 4 6 5 4 6 9 8 9 10 10 9 9 9 10 11 12 12 11 10 11 13 13 11 11 13 14 10 9 12 16 19 20 21 19 19 21 20 17 17 19 20 19 18 17 19 21 23 24 24 23 23 24 25 27 29 30 30 29 28 28 29 29 30 30 29 30 31 31 31 31 30 29 28 28 27 27 26 26
Wind_Direction
155 193 216 208 214 212 216 198 180 203 199 205 202 203 227 228 243 227 223 246 188 174 225 220 221 224 231 227 174 161 167 167 168 165 164 164 160 154 146 140 136 136 138 141 146 147 146 149 152 153 156 160 166 170 174 177 179 181 183 184 184 184 184 184 185 189 198 206 210 220 233 240 243 248 256 263 267 272 278 275 271 271 269 267 271 278
165 209 222 205 203 209 212 182 172 211 225 227 215 216 245 233 245 248 233 242 197 176 232 224 218 229 236 230 186 149 157 174 175 166 169 165 156 148 140 137 134 131 133 137 141 145 144 144 149 153 155 159 162 166 173 176 179 182 183 183 183 183 185 187 186 188 195 202 206 217 233 242 249 256 263 274 282 283 284 280 276 277 276 276 278 283
206 222 217 195 193 199 205 185 181 207 220 233 224 208 247 242 257 288 277 255 205 185 235 225 214 227 239 237 196 156 158 176 182 171 170 162 150 149 147 144 139 138 142 142 142 144 143 142 146 150 155 161 162 163 168 172 176 179 180 181 179 178 183 187 188 188 193 201 209 222 240 248 255 266 272 278 283 284 283 281 280 278 278 281 283 286
210 223 203 187 186 192 208 197 188 209 223 226 216 198 238 241 227 274 281 275 222 208 222 212 210 236 256 264 229 205 172 171 184 177 170 162 155 157 157 151 147 147 148 146 145 145 146 144 144 148 154 159 161 162 163 165 168 174 178 178 174 175 181 185 190 194 197 205 214 226 244 252 255 266 275 275 275 276 278 279 278 277 280 281 279 282
216 206 183 185 195 193 204 204 190 205 228 231 221 201 229 241 217 213 270 313 268 237 221 157 175 270 260 251 230 244 174 166 179 171 166 165 151 145 143 143 145 148 149 148 148 148 148 147 145 148 152 156 159 161 165 164 163 166 170 172 174 176 178 178 182 188 192 198 207 220 234 243 250 261 272 274 274 275 278 280 283 283 281 278 275 276
227 211 176 187 205 197 202 210 195 192 210 242 233 206 223 240 229 221 308 352 326 260 233 131 150 261 266 229 216 217 134 163 172 159 158 153 132 131 135 139 139 139 146 147 146 147 150 147 144 144 147 151 153 159 166 167 165 164 162 166 172 174 173 172 173 177 181 190 202 217 230 241 254 265 271 274 278 280 281 284 289 286 276 273 274 270
215 210 183 189 200 200 207 218 200 177 184 238 218 187 219 236 228 256 291 330 268 257 249 156 170 243 288 225 216 182 142 162 162 151 154 146 136 140 139 142 144 143 145 143 142 146 148 147 142 139 142 146 149 154 162 162 161 161 160 162 166 168 172 172 176 190 197 212 222 227 242 253 261 271 279 284 286 288 287 288 289 283 273 270 270 266
183 199 198 192 194 200 209 217 200 167 173 229 192 169 213 224 201 221 244 238 228 260 282 192 158 154 247 233 218 148 144 154 143 142 150 143 139 140 141 147 149 149 147 142 143 144 143 143 138 134 137 142 145 149 154 153 151 153 154 156 158 162 168 171 187 210 218 235 232 225 246 264 269 277 287 294 297 297 294 293 292 290 284 272 267 264
175 197 200 190 195 208 208 211 200 176 192 232 202 189 213 198 178 199 216 238 242 283 282 241 155 127 259 261 177 127 149 151 139 146 149 142 141 143 146 147 143 143 141 137 140 140 137 134 131 132 135 137 140 144 147 147 147 148 149 151 153 159 169 187 216 212 202 216 223 228 251 269 273 280 289 297 305 307 302 300 300 301 303 300 283 267
185 197 198 192 200 209 205 208 204 196 211 225 202 218 224 167 171 198 202 223 217 115 248 235 176 146 266 270 133 125 158 156 144 148 148 144 145 144 141 139 138 135 130 129 131 131 130 129 129 132 134 135 138 142 141 140 143 147 150 150 154 164 174 192 207 200 195 201 216 234 248 261 266 274 288 298 307 314 314 311 315 317 310 304 305 289
207 193 199 202 201 204 204 207 209 206 209 204 197 225 246 154 145 202 198 169 153 236 247 232 195 158 216 265 179 150 192 159 143 138 145 144 139 138 138 137 136 132 128 125 121 119 121 124 128 129 129 132 136 138 135 133 136 135 139 147 152 173 192 203 211 208 207 212 222 235 245 256 266 279 294 302 307 314 317 315 319 331 328 316 318 310
245 206 205 207 193 192 201 209 215 209 202 204 203 198 227 301 356 235 333 120 179 237 250 229 197 168 187 247 245 312 295 160 148 148 153 151 143 141 140 135 135 133 129 123 118 119 117 117 124 124 121 125 128 128 126 127 125 117 117 123 116 116 136 158 184 193 198 212 227 244 255 264 274 289 302 308 313 317 320 319 320 330 332 324 319 312
250 233 216 208 197 188 194 206 214 212 200 206 212 162 169 246 221 201 230 197 203 242 250 199 154 175 212 231 315 320 297 170 161 158 155 153 148 145 139 133 134 132 129 125 121 122 118 115 118 116 113 115 115 113 114 116 116 112 110 109 102 96 98 105 111 115 111 108 105 97 29 331 314 312 315 319 321 318 317 317 317 321 326 323 314 307
238 261 234 209 204 192 195 196 196 209 198 199 204 159 156 169 167 199 209 208 221 240 256 194 149 192 253 301 337 315 256 158 143 147 148 147 142 138 133 130 131 131 129 125 120 121 117 112 110 108 105 106 108 108 107 108 113 113 106 102 98 91 89 95 96 95 94 90 85 84 77 54 30 356 344 338 331 328 326 323 321 320 322 319 312 305
203 242 230 204 197 186 196 201 186 181 181 201 195 141 159 172 159 192 190 182 214 223 280 327 145 193 263 320 323 320 123 118 98 99 121 123 122 123 122 124 127 127 125 120 118 117 110 109 108 105 104 102 103 106 106 105 109 111 104 97 93 87 84 85 85 84 82 80 78 78 71 57 44 14 360 353 347 344 341 338 335 330 323 316 311 307
198 234 236 206 209 192 192 198 179 167 183 207 165 132 187 188 147 154 183 173 172 175 310 5 97 236 122 13 354 37 89 104 112 116 116 116 121 122 119 122 125 121 118 117 116 112 109 110 107 106 108 105 102 103 105 103 102 103 102 97 90 84 81 77 77 80 78 73 71 69 60 45 34 17 4 355 348 346 345 342 339 333 326 319 315 313
181 242 256 199 218 217 191 184 178 178 186 185 175 183 195 163 131 121 191 191 109 131 222 89 120 187 130 51 27 75 91 101 116 121 122 123 124 123 120 124 123 117 115 112 112 113 111 112 110 110 113 110 107 105 104 103 102 103 102 99 94 85 79 74 73 77 77 71 66 66 65 55 39 24 15 2 351 346 342 339 336 331 326 321 319 318
153 244 266 195 211 228 196 183 192 186 166 159 198 199 144 122 116 105 148 339 68 138 232 240 149 166 165 181 112 109 107 113 121 122 123 121 118 118 118 122 119 114 113 110 110 111 110 112 114 114 114 112 111 109 106 105 105 104 100 96 92 86 80 74 73 76 75 71 65 62 60 54 41 24 8 355 347 344 339 337 335 331 324 321 321 318
128 239 277 211 202 226 183 175 203 206 181 172 184 168 126 156 207 117 150 163 142 162 156 49 170 177 184 194 154 137 134 132 124 123 127 123 117 118 119 121 117 114 114 112 112 113 114 116 117 118 119 116 111 108 106 103 100 101 101 98 95 94 94 84 75 72 71 69 62 54 45 36 27 11 350 342 343 344 345 345 344 337 328 323 324 322
134 134 282 257 216 226 179 174 202 212 239 108 143 146 151 165 169 170 167 148 156 174 110 113 179 219 235 203 167 156 155 150 140 134 131 121 112 117 122 122 119 116 117 120 123 125 125 124 124 126 124 117 112 111 111 108 103 101 101 100 102 106 105 88 73 65 65 64 56 49 42 32 30 23 9 5 5 3 1 357 351 345 338 335 333 329
181 149 252 293 304 224 199 200 187 183 186 156 143 168 176 161 147 161 171 133 136 149 137 137 190 251 250 205 176 160 151 150 147 137 127 119 114 113 115 115 114 116 120 128 134 135 134 130 129 128 121 117 118 116 113 111 107 104 101 99 104 108 102 89 80 73 64 60 59 56 49 42 40 36 31 29 27 26 19 6 356 350 345 346 346 340
176 159 198 277 325 198 234 245 123 154 211 182 163 179 174 156 137 134 211 264 129 136 156 153 182 250 256 197 158 149 141 138 135 127 121 120 121 118 115 115 114 117 125 135 137 135 131 125 125 125 121 120 119 113 110 110 107 105 103 101 105 105 97 94 94 84 71 65 64 60 53 49 47 42 41 41 41 38 29 16 7 0 358 0 0 356
147 127 172 243 240 213 255 275 135 159 221 197 177 181 156 138 129 139 189 246 181 142 138 122 148 238 271 247 149 140 134 129 123 120 118 118 121 118 114 113 114 121 133 138 134 125 121 119 122 130 129 122 115 112 112 109 105 104 104 104 109 104 94 99 101 91 79 65 60 60 59 56 53 51 49 45 42 35 26 19 13 7 8 11 8 4
149 131 166 259 293 292 303 322 1 134 134 140 209 173 140 149 166 164 173 180 175 170 127 95 131 241 281 257 142 132 126 128 127 123 121 120 120 118 121 123 120 121 122 116 108 103 107 107 111 125 128 120 115 116 114 110 108 108 102 98 101 98 95 98 98 94 84 66 63 65 62 57 54 52 47 41 34 26 19 16 10 7 11 11 8 4
197 177 124 119 315 320 330 342 342 352 61 122 216 190 154 155 157 166 155 139 190 218 155 143 177 236 235 139 131 129 129 131 132 130 126 124 125 127 130 127 114 101 91 87 87 87 93 92 92 108 118 119 121 122 119 116 115 110 105 100 99 100 99 94 90 89 80 69 70 68 60 57 55 49 43 36 27 21 18 16 12 14 18 16 11 9
190 171 123 138 165 191 199 193 237 289 332 330 285 236 179 153 151 165 138 145 202 233 111 143 165 149 139 135 132 133 135 134 135 134 131 130 135 136 130 120 103 92 92 93 91 87 85 81 84 101 115 124 128 128 124 120 114 110 110 105 102 103 99 93 90 83 73 69 71 66 59 57 54 47 40 32 29 29 27 26 26 28 30 26 21 20
138 154 151 151 163 183 184 185 255 321 61 350 326 319 270 154 128 120 108 162 184 129 48 189 148 136 147 147 140 142 142 140 141 139 136 138 139 133 124 114 101 96 98 97 94 88 84 80 83 98 113 124 130 130 127 122 118 116 113 105 102 103 99 97 98 84 70 68 68 63 60 58 54 47 39 33 35 39 36 35 36 35 35 33 30 30
101 161 185 153 157 174 140 64 350 16 90 83 334 330 301 176 110 107 142 199 161 113 25 231 144 137 159 161 150 151 148 145 147 144 140 141 136 126 118 111 104 102 102 99 94 90 87 83 79 83 92 106 121 126 125 124 122 117 111 104 102 102 99 96 96 87 73 66 63 61 62 61 56 49 43 40 40 39 37 37 38 37 36 34 33 32
114 168 219 137 117 111 90 58 20 54 89 8 8 351 315 257 134 137 181 192 170 147 174 182 159 150 163 166 157 156 150 146 146 143 139 137 129 121 117 114 111 109 107 101 94 87 84 78 69 65 70 85 104 119 127 128 122 110 101 99 98 96 93 91 88 82 72 65 62 63 63 61 56 51 47 44 40 37 39 39 39 40 39 35 34 33
106 90 303 116 103 86 80 71 53 58 60 357 357 8 350 19 124 127 130 157 172 168 160 161 157 150 155 157 150 145 140 136 136 137 138 139 134 126 122 121 119 117 110 103 95 88 81 74 64 56 54 61 84 116 131 124 111 102 97 97 95 91 90 91 86 78 70 64 63 65 65 61 58 54 48 44 42 42 43 42 42 45 44 42 41 38
80 88 337 71 94 67 71 79 64 51 63 24 352 14 20 42 84 95 98 102 100 118 132 133 125 107 123 132 125 125 129 131 135 140 141 141 138 130 128 128 123 118 111 105 99 90 79 69 57 45 37 33 49 106 119 109 102 100 95 93 92 89 89 90 85 77 69 65 66 67 67 63 60 57 50 48 47 47 47 47 46 47 48 47 45 42
75 103 13 58 91 15 19 77 72 45 48 25 352 5 13 34 86 100 133 134 125 125 125 122 121 128 132 126 124 130 138 140 142 143 140 139 136 130 130 128 121 117 113 104 93 84 75 62 47 38 28 28 56 94 108 105 100 96 92 90 89 87 88 85 78 74 69 68 68 68 68 66 62 57 55 54 53 51 50 50 48 48 49 48 47 45
97 111 73 82 99 9 351 81 81 49 38 356 310 338 342 344 72 69 38 100 131 137 140 144 153 153 140 132 133 138 141 142 141 138 137 139 131 123 122 118 112 111 106 97 90 82 76 64 52 45 40 59 83 99 106 105 99 95 92 92 90 87 85 80 74 71 70 69 69 67 69 71 65 60 60 59 57 54 53 52 49 47 47 48 50 49
84 107 118 112 101 38 306 80 73 50 24 240 269 313 311 329 54 77 64 56 109 121 110 115 133 140 140 140 142 142 138 134 129 124 132 139 133 120 113 111 111 108 97 93 92 84 79 71 64 65 74 85 95 103 105 102 100 98 95 92 90 87 82 76 71 69 68 70 72 70 71 73 69 66 65 64 60 58 56 53 51 48 47 48 50 49
87 96 104 87 99 155 198 76 79 235 238 250 320 325 314 86 74 67 60 40 60 106 104 108 124 133 133 130 130 126 116 102 94 93 109 128 131 123 118 118 119 114 109 103 96 89 86 83 80 83 88 95 102 105 103 102 101 98 93 89 87 84 81 76 71 68 67 69 73 74 74 74 74 71 69 68 66 63 59 56 53 50 48 48 49 48
119 114 102 81 100 134 103 101 158 247 295 330 350 327 327 97 75 40 47 28 12 112 119 119 121 121 115 112 116 116 109 95 74 52 60 102 120 123 124 128 126 119 119 118 110 106 100 93 94 96 96 99 105 106 105 104 100 94 89 86 85 83 81 79 73 69 67 68 72 76 76 76 77 75 71 71 71 67 62 58 54 51 51 51 51 51
119 122 103 79 81 117 114 117 76 16 332 330 8 296 279 132 136 160 90 21 341 80 124 123 117 116 116 116 121 118 109 99 80 38 30 86 110 115 118 124 126 122 119 117 116 116 106 98 99 101 100 101 105 107 106 102 96 90 86 82 81 82 81 79 75 72 70 70 74 78 78 79 80 78 75 75 73 70 66 62 57 54 54 55 55 54
88 124 138 121 90 92 109 107 56 64 268 258 204 245 269 236 150 144 127 87 348 46 136 133 128 129 128 128 132 127 115 108 106 91 68 104 112 112 110 115 120 122 122 121 121 118 109 104 103 102 102 103 104 106 105 99 91 87 84 81 80 81 80 78 77 78 76 75 79 82 81 82 82 81 80 80 78 76 72 68 65 62 60 61 60 58
51 52 98 104 111 121 116 130 162 182 224 229 208 229 261 258 153 115 104 152 178 154 148 140 138 140 139 140 143 138 130 130 142 163 164 132 120 117 117 116 115 117 121 124 122 115 111 111 107 104 104 104 104 106 103 95 89 88 86 84 82 79 77 77 81 85 86 85 87 88 86 86 85 84 85 85 83 83 80 76 73 70 69 68 65 64
46 29 47 93 132 143 117 126 172 192 230 242 225 214 226 239 139 114 147 213 175 156 156 150 148 149 147 146 149 151 154 155 156 161 160 130 113 108 112 114 112 112 116 120 119 115 114 114 109 105 104 105 109 109 103 96 93 94 94 91 85 80 78 80 85 92 96 95 93 91 90 90 89 88 88 88 87 87 85 82 79 77 75 73 71 69
50 43 58 108 134 133 122 124 143 261 239 231 237 229 221 206 87 137 210 211 159 154 157 150 147 153 151 146 147 157 150 126 130 136 133 120 110 102 101 105 107 110 116 120 118 115 113 111 109 106 105 108 113 112 106 102 101 101 101 95 88 85 84 85 88 93 97 98 95 92 91 92 93 92 91 92 92 91 87 84 82 80 78 77 75 73
93 85 66 106 131 136 121 107 74 281 238 201 227 253 236 111 140 211 223 151 141 149 151 144 144 148 142 124 117 119 114 110 115 122 122 119 116 109 104 105 109 114 119 118 114 113 111 108 107 106 105 110 115 114 110 108 106 105 102 96 92 94 93 90 90 92 94 95 94 93 92 92 93 94 95 96 96 93 90 87 85 83 81 79 77 75
145 120 103 142 138 116 83 88 135 213 228 193 184 270 258 171 193 187 117 107 129 138 140 144 144 138 126 111 112 121 121 117 117 118 115 115 114 111 110 112 116 120 119 115 112 112 110 105 102 105 109 113 116 116 114 112 111 109 105 101 103 104 100 95 93 92 93 93 91 91 92 92 93 94 94 96 96 93 90 88 87 84 82 80 79 76
137 122 158 197 178 140 145 160 193 261 290 275 179 172 188 176 171 149 125 118 130 136 139 145 137 129 131 129 128 128 125 122 123 121 117 118 118 111 109 116 122 120 116 114 113 111 109 104 101 105 112 116 117 117 116 116 115 114 110 110 114 111 103 99 96 92 91 90 89 89 90 90 92 94 94 95 95 93 89 87 86 84 81 79 78 76
238 133 141 140 92 105 135 155 314 331 330 354 75 108 101 89 96 118 118 119 130 137 136 135 131 130 134 133 131 130 128 127 126 122 120 122 122 115 114 121 124 119 116 116 115 112 110 107 104 106 111 118 119 119 118 117 116 117 117 118 119 113 107 103 99 94 91 89 88 89 89 89 89 90 91 93 93 92 89 87 86 84 81 80 78 77
350 83 95 104 113 93 62 40 40 51 44 47 52 58 74 82 86 95 102 107 118 120 122 130 134 136 138 135 130 127 128 130 126 122 120 118 112 110 115 120 122 120 119 118 116 115 113 110 108 108 111 118 122 122 120 117 115 117 121 121 118 114 110 106 101 97 95 93 91 91 92 91 89 88 89 90 90 91 89 88 87 85 83 82 81 79
333 36 71 96 134 111 60 40 64 74 73 71 67 62 65 69 70 85 101 111 116 116 118 123 126 129 135 135 130 127 131 133 129 124 120 114 107 107 115 120 122 122 123 122 121 121 119 116 113 112 113 119 126 127 124 120 119 121 122 120 118 115 113 108 104 101 99 98 97 96 95 94 93 93 92 91 91 91 90 89 89 86 84 83 83 82
342 55 79 92 94 81 99 126 91 75 69 71 78 79 79 80 76 77 92 107 112 114 119 124 126 129 132 132 132 132 133 136 135 132 128 122 119 120 119 121 122 124 125 127 128 128 126 122 121 120 118 120 128 132 130 125 124 125 124 121 119 116 113 109 107 105 103 102 101 100 99 98 97 97 96 94 93 92 90 89 88 86 85 84 83 83
327 60 101 117 100 89 113 138 114 85 64 55 75 88 93 99 96 89 91 102 109 112 114 118 122 126 128 131 133 132 133 136 136 133 130 128 128 127 121 119 121 125 127 129 131 130 128 126 125 125 123 122 126 132 134 134 133 131 127 123 121 117 114 112 111 109 107 107 105 103 102 101 100 99 98 97 95 93 91 89 88 87 87 86 85 84
53 103 122 123 129 152 167 168 145 113 92 89 104 104 105 109 106 101 100 104 110 115 116 113 111 114 122 129 134 134 133 134 135 131 128 129 130 126 122 121 122 125 128 130 131 131 131 130 129 128 128 126 124 126 128 132 137 141 139 132 126 121 118 117 115 113 111 110 109 108 106 105 103 102 101 100 99 97 94 92 90 88 88 88 87 86
74 173 160 134 143 174 155 140 124 111 117 141 128 116 117 117 111 110 113 112 112 118 120 119 118 117 117 123 131 135 133 133 135 133 125 124 128 126 126 128 129 129 130 131 132 134 139 141 139 136 135 135 130 126 124 124 128 137 146 148 140 130 124 120 118 117 117 115 114 113 111 110 109 107 106 104 102 101 99 96 93 90 89 89 88 87
Height
744 755 757 756 756 753 751 753 755 754 753 756 759 761 760 761 758 749 745 739 735 745 748 744 746 748 743 741 744 745 747 753 755 757 759 760 760 760 763 766 769 771 773 773 774 774 775 778 781 784 787 789 791 792 794 796 798 799 800 800 801 802 804 804 805 806 806 806 806 806 806 806 805 805 805 805 805 805 805 805 806 807 808 810 811 813
744 754 755 750 750 748 748 750 751 752 753 754 758 761 761 761 757 746 743 739 735 744 746 741 746 749 741 738 740 742 748 754 754 756 759 758 759 761 764 767 770 772 773 775 777 777 777 777 780 784 787 789 791 793 794 796 798 799 800 801 802 803 804 805 806 806 806 806 806 806 805 805 805 805 805 805 805 805 804 805 806 807 809 811 813 814
750 752 748 745 745 744 746 747 748 751 753 756 758 762 764 759 754 748 742 737 737 744 746 742 747 749 739 736 739 740 744 749 749 750 752 753 757 761 764 767 769 772 774 775 777 779 779 779 779 783 787 789 791 793 795 796 798 799 800 802 803 803 804 805 806 807 808 808 807 806 806 805 805 805 805 805 805 805 805 805 806 808 809 812 814 815
755 749 742 742 742 743 746 746 748 752 753 756 759 764 764 757 756 756 746 739 738 740 740 741 747 748 741 739 739 738 739 742 745 746 747 747 749 754 758 761 765 769 773 775 777 779 780 780 780 783 786 789 791 793 795 796 798 799 801 802 803 804 805 806 807 808 809 809 808 807 806 805 804 805 805 804 804 804 804 805 807 808 810 812 814 816
749 740 736 739 740 742 746 747 749 753 756 755 756 761 761 753 755 755 748 742 739 737 735 741 756 753 743 744 741 736 738 740 742 748 750 749 748 751 757 762 765 767 770 773 776 778 780 781 781 783 786 789 791 793 795 796 798 799 801 803 804 805 806 807 808 808 809 809 809 808 806 806 805 804 805 804 804 804 804 804 805 808 811 812 814 815
743 735 733 738 740 741 744 747 748 751 757 757 751 752 753 749 751 752 748 747 752 753 739 741 767 765 744 744 741 736 741 742 743 748 753 754 755 757 762 765 768 770 771 772 774 776 779 780 781 783 786 789 792 794 795 797 798 800 801 803 804 806 806 807 808 808 809 809 809 808 807 806 805 805 805 804 804 804 803 804 805 808 810 811 811 810
738 732 731 736 739 741 743 745 744 746 758 760 746 742 744 746 751 752 749 754 763 761 739 735 760 765 749 744 738 735 742 744 746 751 753 755 758 761 764 766 768 770 771 772 774 776 779 780 781 783 786 789 792 794 796 797 799 800 802 803 804 806 807 807 808 808 808 808 808 808 808 807 807 806 805 805 805 804 804 804 805 807 807 809 808 807
730 733 733 733 737 741 744 744 739 741 755 755 738 735 741 744 751 750 748 754 756 750 741 734 743 756 754 744 736 736 743 747 752 756 756 757 760 763 765 766 767 769 770 771 774 777 778 780 781 784 786 789 792 795 796 798 799 801 802 804 805 806 807 807 808 808 808 808 809 809 808 808 807 806 806 806 805 804 803 803 805 805 805 807 808 807
724 732 733 732 737 740 739 737 734 737 747 743 732 733 736 739 745 744 745 751 748 750 754 742 740 757 758 743 739 742 745 754 759 759 760 761 762 764 765 766 768 769 770 771 774 777 778 780 782 784 787 790 792 794 796 798 799 801 803 804 805 806 807 807 807 808 808 808 808 809 809 808 807 807 806 806 805 804 803 803 804 804 804 805 807 806
721 724 725 728 734 735 732 729 728 733 738 733 729 732 732 736 740 739 745 748 748 759 762 746 740 755 760 747 746 750 751 758 762 759 760 761 761 764 765 767 768 770 771 773 775 777 778 779 781 784 787 790 792 795 797 798 800 802 803 804 805 806 806 807 807 807 808 808 808 809 808 808 807 807 806 805 804 803 803 802 803 804 803 804 804 804
717 716 718 721 725 724 725 725 724 727 730 727 729 734 736 740 739 738 744 747 754 765 758 744 737 745 758 753 746 752 751 751 757 762 763 762 763 765 765 767 768 770 772 774 776 777 779 780 782 785 788 790 793 795 796 798 800 802 803 804 805 806 806 806 807 807 807 808 808 808 808 807 807 806 805 804 803 802 802 801 801 802 802 802 802 801
719 718 718 714 714 717 721 724 723 722 725 727 730 736 744 749 746 748 751 751 765 768 748 739 738 740 753 753 747 753 751 743 747 755 762 764 764 765 765 766 768 770 772 774 777 778 780 782 783 786 789 791 793 795 797 798 800 801 803 805 805 806 806 806 806 807 807 807 807 807 807 807 806 805 804 803 802 801 800 800 800 800 800 800 800 800
726 721 716 712 710 711 719 728 727 723 725 730 734 741 753 761 760 763 765 762 766 761 740 734 739 743 753 757 757 759 752 745 743 743 750 757 760 763 764 766 768 771 772 774 777 779 780 783 785 786 789 792 793 796 798 798 799 802 804 805 806 807 807 807 806 807 807 807 807 807 806 806 806 805 804 803 802 801 800 799 799 798 798 798 798 798
733 724 715 715 713 707 713 726 732 731 730 733 736 744 755 763 768 773 772 768 764 753 740 734 738 750 760 760 762 759 749 746 746 745 748 752 756 761 764 767 770 771 773 774 776 779 781 784 786 787 790 793 794 795 798 799 800 803 805 806 807 807 808 807 807 807 807 807 806 806 806 806 805 804 803 802 801 801 800 798 798 797 797 797 796 796
739 733 718 715 714 706 707 715 720 723 727 728 727 734 746 750 756 765 765 763 760 750 743 741 747 763 769 762 760 756 748 746 751 755 756 757 760 763 766 770 772 773 774 775 777 779 782 784 787 788 790 794 795 795 799 801 801 803 805 806 807 807 808 807 807 807 806 807 806 806 806 805 804 804 803 802 801 800 799 798 797 796 796 795 795 794
734 731 711 705 706 702 705 707 705 714 726 725 720 729 740 735 735 749 755 751 748 745 751 761 767 772 770 763 760 756 752 752 757 761 762 763 765 767 770 773 775 776 776 777 778 780 783 785 788 789 791 795 796 796 799 801 802 803 805 806 807 807 807 807 807 807 807 807 806 806 806 805 804 803 802 801 801 800 799 798 797 796 795 794 794 793
730 727 707 701 703 699 702 701 699 710 721 722 724 728 728 721 722 740 753 751 744 748 764 777 778 774 769 766 764 760 759 760 762 765 767 767 768 769 773 775 776 777 778 780 781 782 784 786 789 791 792 795 796 798 800 802 803 804 805 806 807 806 807 807 808 807 806 806 806 806 806 805 804 803 802 801 800 799 798 797 796 795 794 793 792 791
722 723 707 701 705 699 695 697 697 699 705 716 725 721 716 720 722 729 746 756 752 756 774 781 775 772 772 771 768 765 765 765 765 768 770 771 773 773 775 776 777 778 780 783 784 784 785 787 789 792 793 795 797 799 800 802 803 804 805 806 805 806 807 808 808 807 806 806 806 806 805 805 804 803 802 801 800 799 798 797 795 794 792 791 790 790
716 723 711 699 703 698 692 700 705 700 697 704 710 707 715 731 735 733 744 756 757 761 777 783 777 772 769 769 768 767 768 768 768 770 772 774 777 777 778 779 779 780 782 785 786 787 787 788 790 793 794 796 798 799 800 802 803 804 805 805 805 806 808 808 808 807 807 807 806 806 805 805 804 803 802 801 800 799 798 796 795 793 791 790 789 788
714 724 718 702 700 699 696 704 714 711 702 700 702 704 711 721 729 732 738 746 751 759 772 781 782 775 765 763 764 763 765 767 768 771 773 776 779 780 782 782 781 782 785 787 788 789 788 789 791 793 795 796 797 799 801 802 804 805 806 806 806 807 808 808 808 807 807 807 806 806 806 805 804 803 802 801 800 799 797 796 794 793 791 790 788 787
714 723 723 710 702 704 707 706 709 712 708 707 710 713 713 714 719 726 732 736 739 749 766 780 785 776 760 756 759 761 764 766 766 770 773 776 780 782 784 783 783 785 788 789 790 789 789 790 791 793 795 796 798 800 802 803 804 805 805 806 806 807 808 808 808 808 808 807 806 806 805 805 804 803 802 801 799 798 797 796 794 793 791 789 788 786
713 720 721 716 709 711 712 705 703 706 705 706 709 712 713 715 720 731 739 735 728 737 757 769 775 772 760 755 758 761 765 767 768 770 774 777 780 782 784 784 785 787 789 791 790 789 789 789 791 793 795 798 799 801 802 803 804 805 805 806 806 806 807 808 808 809 808 807 807 806 805 804 803 802 801 800 799 798 797 796 795 793 791 789 787 785
705 714 719 718 714 712 707 699 699 701 701 701 702 704 708 712 719 731 740 735 726 734 750 755 759 765 763 758 757 760 764 768 771 773 775 778 779 781 783 784 785 788 789 790 789 788 788 789 791 794 796 799 800 801 802 803 804 805 805 806 806 807 808 808 809 809 809 808 807 806 805 804 803 802 801 800 799 798 797 796 794 792 790 788 786 784
701 712 718 718 715 708 699 693 691 693 698 703 703 701 705 709 712 718 724 725 725 734 744 749 759 765 763 759 758 760 765 769 772 774 776 780 781 782 784 785 786 788 789 789 789 788 789 790 792 794 796 799 801 801 803 803 804 805 806 807 807 808 808 809 809 809 809 808 806 806 805 804 803 802 801 800 799 798 797 796 794 792 790 788 786 784
704 714 718 722 724 719 711 706 701 698 699 704 704 700 700 703 707 713 719 720 726 735 735 739 757 767 762 761 761 762 768 772 774 775 777 780 782 783 785 785 787 788 789 789 789 789 790 792 793 795 797 799 801 802 803 804 805 806 807 808 808 809 809 809 809 809 808 808 806 806 806 804 804 803 802 801 799 798 797 795 794 792 790 787 785 783
702 711 714 721 731 733 729 725 720 713 709 707 705 701 701 702 705 714 723 725 730 740 739 739 755 767 764 763 765 766 770 773 775 777 778 780 782 783 784 785 786 788 790 790 790 791 792 793 794 796 798 800 802 803 804 804 806 807 808 809 809 809 810 809 810 809 808 808 807 806 806 805 804 803 802 801 799 798 797 795 794 792 789 787 785 783
700 707 708 712 718 724 725 723 720 716 717 720 716 709 706 705 705 713 723 726 728 738 747 748 752 761 764 763 764 766 770 774 777 778 779 780 781 782 783 785 786 788 790 791 792 794 794 795 796 798 800 802 803 803 804 805 806 807 808 809 810 810 810 810 810 810 809 808 807 807 806 805 805 804 803 801 800 798 797 795 793 791 789 787 785 783
700 707 708 708 711 714 716 719 720 716 721 729 726 718 712 708 710 717 722 724 726 735 751 755 750 755 763 762 760 763 766 771 776 777 779 780 781 782 784 785 787 789 791 793 794 795 796 796 798 800 802 803 803 804 806 807 807 809 810 810 810 810 810 810 810 810 809 809 808 807 806 806 806 805 803 802 800 799 797 795 793 791 789 787 785 783
700 709 711 711 715 718 717 719 721 720 726 731 728 726 719 709 709 716 719 721 721 724 740 751 749 752 758 760 760 761 762 766 772 774 776 780 781 783 785 786 789 792 793 795 797 797 798 798 800 802 803 803 805 806 807 808 809 810 811 811 811 811 811 811 810 810 810 809 808 808 807 807 806 805 804 802 800 799 797 795 794 791 789 787 785 783
701 713 716 712 717 726 726 725 727 727 730 732 729 728 725 715 709 712 719 723 720 718 730 742 747 750 754 757 761 764 764 766 770 773 776 779 782 784 787 788 791 794 795 796 799 799 799 800 802 803 803 804 806 807 808 809 811 812 812 812 812 812 811 811 810 810 810 810 809 808 808 808 807 806 805 803 801 800 798 796 794 792 790 788 786 784
700 717 722 712 718 732 731 728 733 733 733 734 731 727 725 721 717 717 724 730 730 731 737 743 751 756 756 757 762 767 769 771 773 776 778 780 782 784 788 791 792 795 797 798 799 800 800 801 803 803 804 805 806 807 808 810 812 813 813 813 813 813 812 812 811 811 811 810 810 809 809 809 808 807 806 804 803 801 799 798 796 794 792 790 788 786
700 715 722 714 721 736 734 731 734 732 730 732 732 730 728 726 726 726 726 727 732 740 746 748 754 759 758 760 764 768 772 774 776 778 779 781 783 785 789 792 794 796 797 798 799 800 801 803 804 805 806 806 807 807 809 811 813 814 814 815 815 814 813 813 812 812 811 811 810 810 810 810 809 808 807 806 805 803 801 800 797 796 794 791 790 787
705 710 718 719 727 743 744 735 731 732 734 735 735 740 739 733 730 731 729 727 728 735 743 745 748 752 755 759 766 770 773 776 777 779 780 782 784 787 791 793 796 798 798 799 801 802 804 805 806 807 808 808 808 809 811 812 813 815 816 816 816 815 814 814 813 813 812 811 811 811 811 810 810 809 808 807 806 805 803 802 800 798 796 794 792 789
710 709 718 724 732 748 749 734 732 740 744 741 740 745 745 738 736 736 737 737 733 732 735 738 742 750 754 756 763 769 773 776 778 779 780 782 784 788 793 796 798 800 801 802 804 805 805 807 808 809 810 809 810 811 813 814 815 816 817 817 816 816 815 815 814 813 813 813 812 812 812 811 810 810 810 809 808 807 805 804 802 801 799 796 794 791
713 713 722 729 735 746 744 735 741 750 746 741 742 745 742 740 740 742 742 744 741 736 736 741 748 753 755 758 764 770 775 779 780 781 782 783 784 787 794 799 800 801 803 805 806 806 808 809 810 811 810 811 812 813 814 815 816 817 818 817 816 816 816 816 815 815 814 814 814 813 812 812 812 811 811 811 810 809 808 807 805 803 802 799 797 795
712 715 724 733 739 743 741 740 748 751 745 742 745 744 740 738 739 743 746 748 747 741 740 747 755 757 761 767 771 774 778 781 784 786 786 786 786 787 792 798 800 801 802 805 806 808 810 811 811 811 812 812 813 814 815 817 818 818 817 817 816 816 817 816 816 816 816 815 815 814 813 813 813 813 813 812 812 811 810 809 808 806 805 802 800 798
710 714 721 731 739 742 744 748 751 751 748 746 748 748 743 739 740 744 749 753 752 748 746 751 759 764 768 772 775 775 777 780 788 794 792 789 790 790 792 796 799 800 802 804 806 809 811 812 812 812 813 813 814 816 817 818 818 817 817 817 817 817 817 817 817 817 817 817 816 815 815 814 814 814 815 814 813 813 813 812 811 810 808 805 803 801
711 713 716 725 738 744 746 752 757 757 751 746 749 750 744 739 740 741 746 753 754 753 751 752 759 766 770 773 775 774 775 783 793 798 795 792 792 792 794 797 799 801 803 805 807 810 812 812 812 813 813 814 815 817 817 817 817 817 817 819 819 818 818 818 818 818 818 818 818 817 816 816 815 816 816 816 816 816 815 815 814 813 811 809 807 805
717 720 718 722 737 742 740 745 752 753 747 743 747 749 744 740 739 738 744 753 756 756 756 755 759 763 766 770 772 771 775 786 796 798 795 794 793 793 796 799 801 803 804 806 808 811 812 813 813 814 814 815 817 818 818 817 817 817 819 820 820 819 819 819 819 819 819 820 819 819 818 817 817 817 817 818 818 818 818 817 817 816 814 812 810 809
721 727 727 728 736 739 737 742 747 747 745 744 744 745 742 737 736 740 747 750 752 756 757 758 761 762 762 765 768 770 774 782 790 794 794 794 795 796 798 800 802 804 805 808 810 812 813 813 814 814 815 816 818 819 818 818 819 820 821 822 821 820 820 821 821 820 820 821 821 821 820 819 819 819 819 820 820 820 820 820 819 818 817 815 814 813
727 731 735 736 737 737 736 742 748 747 744 742 741 740 738 736 738 742 742 741 747 754 756 757 762 764 762 762 765 771 776 779 783 789 793 794 796 798 800 801 802 804 807 810 811 812 813 814 815 816 817 818 819 820 819 820 821 822 823 823 822 822 823 823 823 822 822 822 822 822 822 821 821 821 821 822 822 822 822 822 822 821 819 819 818 816
730 733 739 740 740 741 740 743 748 747 741 738 739 738 736 737 740 741 740 741 747 753 756 758 762 766 768 768 770 776 781 783 786 790 792 794 796 799 801 803 804 807 809 811 812 813 814 815 816 817 819 819 820 821 821 822 823 824 824 824 824 825 825 825 824 824 824 824 824 824 824 823 823 823 823 824 824 823 824 824 824 823 823 822 821 819
728 733 741 742 742 744 745 745 747 745 739 737 738 737 737 738 740 742 746 749 751 754 759 761 763 766 771 775 776 779 782 786 789 791 793 796 798 800 803 804 806 808 810 811 813 813 814 815 817 818 820 821 822 823 823 823 824 825 825 825 826 827 827 827 826 826 826 826 826 826 826 826 825 825 825 826 826 825 826 826 826 826 825 825 824 823
727 732 739 743 743 741 740 743 744 743 742 741 738 738 739 739 741 742 746 751 755 757 760 763 766 769 772 775 778 781 784 788 790 792 795 798 800 801 804 806 807 809 811 812 813 814 815 816 818 819 821 822 823 824 825 824 825 826 826 827 829 829 828 828 829 828 828 828 828 828 828 828 828 828 828 828 828 828 828 828 828 828 828 827 826 826
730 730 732 740 748 745 741 745 748 746 746 743 740 741 742 741 743 743 743 749 755 758 759 764 769 771 773 775 778 782 786 788 791 793 796 799 801 802 804 806 808 810 811 813 814 815 816 817 819 820 822 824 825 826 827 826 826 827 828 829 830 830 830 830 830 830 830 831 831 831 831 831 831 831 831 831 830 830 830 830 830 830 831 830 830 829
734 732 732 740 749 748 745 749 750 748 748 746 744 745 745 744 746 747 747 752 757 759 762 765 769 771 774 776 779 783 788 790 792 795 798 800 802 803 805 807 809 810 812 813 815 816 817 819 820 821 823 825 827 827 828 829 828 828 830 831 832 832 832 832 832 832 832 832 833 833 833 833 833 833 833 833 833 833 833 833 833 833 833 833 833 833
734 733 736 741 746 748 751 753 752 750 751 750 750 750 749 749 751 751 753 757 759 761 764 767 770 773 776 777 779 784 789 791 793 796 800 802 804 805 806 808 809 811 813 814 816 817 818 819 821 823 824 827 828 829 830 831 831 831 832 833 834 835 835 834 834 834 834 835 835 836 836 836 836 836 836 836 836 836 836 837 836 836 836 836 836 836
736 733 738 744 747 750 754 755 753 753 754 753 753 755 755 755 757 757 757 759 761 763 767 769 772 775 777 779 781 785 790 793 794 796 800 803 806 807 808 808 810 812 814 816 817 818 819 820 822 824 826 828 829 830 831 832 833 834 835 835 836 837 837 837 837 837 837 837 838 838 839 839 839 839 839 839 839 839 840 840 839 839 839 840 840 840
739 737 741 747 752 754 756 756 754 754 758 759 758 758 759 759 760 762 763 763 764 766 769 772 774 776 778 782 784 786 790 794 796 797 800 803 806 808 809 809 811 813 815 816 818 819 820 821 823 824 827 829 830 832 833 833 834 836 837 838 839 839 839 840 839 839 840 840 841 841 842 842 842 842 842 842 842 842 843 843 843 842 842 843 844 843
741 742 745 749 754 755 754 753 750 751 760 765 762 760 762 761 762 765 767 767 768 770 772 775 778 780 781 784 786 788 791 794 797 800 802 804 806 808 809 810 812 815 817 817 819 820 821 823 824 826 828 830 831 833 834 835 836 837 838 839 840 840 841 841 841 841 842 843 843 844 844 845 845 846 845 845 845 845 845 846 847 846 846 847 847 847
745 745 745 747 750 750 749 750 749 751 760 765 762 762 763 763 764 767 770 771 772 773 774 777 780 783 786 787 789 791 792 795 798 800 803 806 807 808 810 812 813 816 817 818 819 822 823 825 826 828 829 831 832 833 834 835 837 838 839 840 841 842 842 842 842 843 844 845 846 847 847 847 848 848 848 848 848 848 848 848 849 849 850 850 850 850